�N����,����,�~����,�C��,���x,�C��,����,���ϕ���,�ő�u�ԕ���,�ő厞����,���˗�,�I�_���x,�n�����x,�ő啗���N��,DTYPE
"19/03/03","00:10",0.0,6.7,57.2,1013.0,327.7,2.8,4.3,329.1,0.00,-1.1,9.0,"00:06:00",1
"19/03/03","00:20",0.0,6.6,58.7,1013.3,325.8,3.2,4.4,327.5,0.00,-0.9,9.1,"00:17:12",1
"19/03/03","00:30",0.0,6.7,57.8,1013.3,322.2,3.7,4.9,326.8,0.00,-1.0,8.8,"00:23:28",1
"19/03/03","00:40",0.0,6.9,56.4,1012.6,322.0,3.9,5.4,318.2,0.00,-1.1,8.9,"00:31:28",1
"19/03/03","00:50",0.0,6.7,58.0,1012.3,324.7,2.7,5.0,318.8,0.00,-0.9,9.0,"00:47:28",1
"19/03/03","01:00",0.0,6.5,60.0,1012.3,323.8,2.7,3.6,326.8,0.00,-0.7,8.9,"00:58:32",1
"19/03/03","01:10",0.0,6.3,61.2,1012.3,323.3,2.3,3.7,340.8,0.00,-0.6,8.8,"01:01:04",1
"19/03/03","01:20",0.0,6.4,61.9,1012.3,333.5,2.8,4.7,335.3,0.00,-0.3,8.6,"01:16:32",1
"19/03/03","01:30",0.0,6.5,60.3,1012.1,323.1,3.4,4.5,322.5,0.00,-0.6,8.8,"01:26:40",1
"19/03/03","01:40",0.0,6.6,59.4,1012.1,324.3,3.5,5.0,329.4,0.00,-0.7,9.0,"01:35:44",1
"19/03/03","01:50",0.0,6.4,60.5,1011.9,326.1,2.7,3.4,324.5,0.00,-0.6,8.7,"01:49:20",1
"19/03/03","02:00",0.0,6.2,63.4,1011.6,325.0,2.6,3.9,338.2,0.00,-0.2,8.7,"01:50:24",1
"19/03/03","02:10",0.0,6.0,64.3,1011.9,325.2,2.5,3.5,338.9,0.00,-0.2,8.6,"02:07:20",1
"19/03/03","02:20",0.0,6.1,63.8,1011.4,328.6,2.5,3.7,339.6,0.00,-0.2,8.7,"02:17:20",1
"19/03/03","02:30",0.0,6.0,63.8,1011.4,322.7,2.5,3.2,310.7,0.00,-0.3,8.5,"02:26:56",1
"19/03/03","02:40",0.0,5.9,63.7,1011.2,324.3,2.2,3.4,327.7,0.00,-0.4,8.7,"02:30:56",1
"19/03/03","02:50",0.0,6.0,63.2,1011.4,315.5,2.5,3.6,313.0,0.00,-0.4,8.5,"02:49:36",1
"19/03/03","03:00",0.0,6.0,64.2,1011.2,301.1,2.8,3.9,316.4,0.00,-0.2,8.4,"02:51:20",1
"19/03/03","03:10",0.0,6.0,65.0,1010.9,288.8,2.3,4.5,314.2,0.00,0.0,8.5,"03:03:28",1
"19/03/03","03:20",0.0,6.1,64.4,1011.2,310.8,3.4,4.3,321.7,0.00,-0.1,8.6,"03:10:56",1
"19/03/03","03:30",0.0,6.0,65.4,1011.2,298.7,2.1,3.1,307.5,0.00,0.1,8.5,"03:29:36",1
"19/03/03","03:40",0.0,6.1,65.2,1011.4,313.6,3.2,4.4,320.5,0.00,0.1,8.6,"03:34:40",1
"19/03/03","03:50",0.0,6.0,64.6,1010.9,306.0,2.8,4.2,318.8,0.00,-0.1,8.5,"03:40:24",1
"19/03/03","04:00",0.0,5.8,66.0,1010.9,299.1,2.2,2.8,301.6,0.00,0.0,8.4,"03:59:04",1
"19/03/03","04:10",0.0,5.7,67.1,1010.9,304.8,2.5,3.3,308.2,0.00,0.1,8.3,"04:01:20",1
"19/03/03","04:20",0.0,5.9,66.9,1011.2,313.2,2.8,4.7,328.7,0.00,0.3,8.3,"04:15:20",1
"19/03/03","04:30",0.0,5.7,66.9,1010.4,292.8,2.1,3.6,314.4,0.00,0.1,8.4,"04:22:24",1
"19/03/03","04:40",0.0,5.6,67.9,1010.4,289.9,2.1,2.4,292.6,0.00,0.2,8.4,"04:31:52",1
"19/03/03","04:50",0.0,5.6,69.0,1010.2,291.3,2.1,2.7,303.3,0.00,0.4,8.3,"04:45:20",1
"19/03/03","05:00",0.0,5.5,69.7,1010.2,293.5,2.3,4.3,314.5,0.00,0.5,8.2,"04:57:12",1
"19/03/03","05:10",0.0,5.5,69.6,1010.2,290.6,2.3,3.7,322.1,0.00,0.4,8.3,"05:06:56",1
"19/03/03","05:20",0.0,5.5,69.5,1010.0,295.7,2.5,4.1,314.5,0.00,0.4,8.3,"05:16:00",1
"19/03/03","05:30",0.0,5.6,68.7,1010.0,286.9,2.0,3.6,313.4,0.00,0.3,8.2,"05:21:28",1
"19/03/03","05:40",0.0,5.8,68.4,1010.2,321.5,2.2,3.3,314.4,0.00,0.5,8.2,"05:31:12",1
"19/03/03","05:50",0.0,5.3,71.3,1010.0,318.1,2.2,2.7,320.4,0.00,0.6,8.2,"05:46:32",1
"19/03/03","06:00",0.0,5.2,72.4,1010.0,310.1,2.1,2.6,321.0,0.00,0.7,8.2,"05:51:44",1
"19/03/03","06:10",0.0,5.3,72.3,1010.0,305.0,2.1,3.2,313.1,0.00,0.8,8.2,"06:01:30",1
"19/03/03","06:20",0.0,5.5,71.2,1010.0,298.0,2.3,3.6,320.1,0.00,0.7,8.1,"06:17:28",1
"19/03/03","06:30",0.0,5.8,69.4,1009.7,310.0,2.8,5.2,314.3,0.00,0.7,8.3,"06:29:36",1
"19/03/03","06:40",0.0,5.8,68.3,1009.5,324.0,3.2,5.2,334.0,0.00,0.5,8.1,"06:30:02",1
"19/03/03","06:50",0.0,5.9,67.7,1009.3,317.5,3.7,5.0,336.7,0.00,0.4,8.1,"06:40:08",1
"19/03/03","07:00",0.0,5.9,67.5,1009.7,299.8,3.0,5.0,316.1,0.00,0.4,8.2,"06:53:20",1
"19/03/03","07:10",0.0,5.8,68.8,1009.5,308.2,3.0,4.3,321.0,0.00,0.6,8.2,"07:03:44",1
"19/03/03","07:20",0.0,5.9,69.6,1009.5,285.2,2.1,2.7,288.5,0.00,0.8,8.2,"07:17:20",1
"19/03/03","07:30",0.0,5.9,70.5,1009.7,287.7,2.3,3.2,297.4,0.00,1.0,8.1,"07:26:24",1
"19/03/03","07:40",0.0,6.1,70.8,1010.0,283.7,2.2,3.7,263.4,0.00,1.2,8.0,"07:39:04",1
"19/03/03","07:50",0.0,6.3,70.3,1009.7,299.7,2.7,3.9,296.6,0.00,1.3,8.1,"07:42:32",1
"19/03/03","08:00",0.0,6.5,70.3,1010.0,303.9,2.3,3.6,314.6,0.01,1.5,8.1,"07:50:32",1
"19/03/03","08:10",0.0,6.7,69.5,1010.0,308.9,2.7,4.2,310.9,0.02,1.6,8.2,"08:04:32",1
"19/03/03","08:20",0.0,7.1,67.5,1010.0,300.0,2.5,3.7,314.2,0.03,1.5,8.1,"08:11:52",1
"19/03/03","08:30",0.0,7.2,67.4,1010.4,347.8,1.0,2.8,334.8,0.04,1.6,8.3,"08:21:12",1
"19/03/03","08:40",0.0,7.6,67.2,1010.7,307.9,1.7,3.4,328.0,0.04,2.0,8.2,"08:36:16",1
"19/03/03","08:50",0.0,7.7,67.2,1010.0,330.0,2.7,3.6,338.6,0.06,2.0,8.2,"08:42:00",1
"19/03/03","09:00",0.0,7.8,65.5,1010.4,325.6,3.2,4.5,336.3,0.06,1.8,8.2,"08:52:48",1
"19/03/03","09:10",0.0,7.9,63.5,1010.7,325.1,4.0,5.1,328.8,0.07,1.4,8.2,"09:04:32",1
"19/03/03","09:20",0.0,8.2,62.0,1010.2,319.7,3.5,4.7,344.3,0.08,1.4,8.4,"09:11:44",1
"19/03/03","09:30",0.0,8.6,60.6,1010.2,295.6,2.6,3.9,306.4,0.06,1.5,8.3,"09:23:04",1
"19/03/03","09:40",0.0,8.7,60.5,1010.0,290.1,2.6,3.7,307.6,0.04,1.5,8.3,"09:36:40",1
"19/03/03","09:50",0.0,8.9,60.8,1010.0,291.6,2.3,2.9,309.3,0.04,1.8,8.4,"09:41:20",1
"19/03/03","10:00",0.0,9.0,60.6,1010.0,286.2,2.2,3.2,311.2,0.03,1.8,8.7,"09:52:32",1
"19/03/03","10:10",0.0,8.9,59.8,1009.7,286.3,2.3,3.6,318.6,0.04,1.6,8.5,"10:04:40",1
"19/03/03","10:20",0.0,9.1,61.1,1009.7,287.8,2.0,2.6,301.4,0.05,2.0,8.6,"10:10:32",1
"19/03/03","10:30",0.0,9.1,61.5,1009.7,272.8,2.1,2.8,268.3,0.06,2.1,8.7,"10:26:08",1
"19/03/03","10:40",0.0,9.1,63.1,1009.7,285.2,2.1,2.7,300.6,0.05,2.5,8.7,"10:33:44",1
"19/03/03","10:50",0.0,9.1,64.2,1009.5,283.7,2.0,2.9,292.4,0.07,2.7,8.7,"10:49:52",1
"19/03/03","11:00",0.0,9.4,63.0,1009.7,290.0,2.1,2.9,308.5,0.09,2.8,8.9,"10:52:32",1
"19/03/03","11:10",0.0,9.8,62.2,1009.7,281.6,1.3,1.9,272.6,0.07,3.0,8.8,"11:09:36",1
"19/03/03","11:20",0.0,9.7,61.9,1009.5,285.6,1.1,2.0,271.6,0.03,2.8,8.7,"11:10:16",1
"19/03/03","11:30",0.0,9.8,62.4,1009.5,300.1,1.0,1.6,300.6,0.04,3.0,8.7,"11:27:12",1
"19/03/03","11:40",0.0,10.0,62.6,1009.5,282.3,0.5,1.3,310.4,0.07,3.2,9.1,"11:37:12",1
"19/03/03","11:50",0.0,10.0,63.6,1009.5,278.7,0.5,1.1,277.3,0.07,3.5,9.1,"11:44:32",1
"19/03/03","12:00",0.0,10.0,63.5,1009.3,293.3,0.5,1.1,288.0,0.06,3.4,9.2,"11:52:48",1
"19/03/03","12:10",0.0,9.9,62.7,1009.3,236.4,0.3,1.0,290.0,0.05,3.2,9.2,"12:00:48",1
"19/03/03","12:20",0.0,9.9,64.2,1009.3,257.8,0.5,0.9,260.9,0.04,3.5,9.3,"12:15:44",1
"19/03/03","12:30",0.0,10.1,65.3,1008.8,321.0,1.7,2.8,329.2,0.05,3.9,9.1,"12:26:40",1
"19/03/03","12:40",0.0,10.0,66.0,1008.8,314.5,1.7,2.7,324.9,0.04,4.0,9.4,"12:30:32",1
"19/03/03","12:50",0.0,10.1,67.7,1008.3,301.8,1.6,3.1,323.6,0.04,4.4,9.3,"12:48:32",1
"19/03/03","13:00",0.0,9.9,69.7,1008.6,311.8,1.8,2.9,328.6,0.04,4.7,9.5,"12:50:16",1
"19/03/03","13:10",0.0,9.9,70.6,1008.1,313.8,2.0,3.4,321.0,0.05,4.9,9.3,"13:06:16",1
"19/03/03","13:20",0.0,10.2,71.9,1007.8,309.0,2.1,2.9,322.2,0.05,5.4,9.4,"13:11:52",1
"19/03/03","13:30",0.0,10.2,72.6,1007.6,311.5,1.8,2.8,320.1,0.06,5.5,9.6,"13:25:36",1
"19/03/03","13:40",0.0,10.3,74.0,1007.6,306.1,2.1,3.5,336.1,0.07,5.9,9.5,"13:38:48",1
"19/03/03","13:50",0.0,10.5,76.1,1007.1,309.8,1.8,4.2,324.1,0.07,6.5,9.7,"13:43:36",1
"19/03/03","14:00",0.0,10.6,79.0,1006.9,302.1,1.7,2.6,315.1,0.10,7.2,9.7,"13:52:56",1
"19/03/03","14:10",0.0,10.9,79.5,1007.1,301.9,1.6,2.6,326.4,0.08,7.5,9.7,"14:01:04",1
"19/03/03","14:20",0.0,11.0,79.4,1006.7,314.8,1.7,3.2,325.3,0.09,7.6,9.8,"14:12:24",1
"19/03/03","14:30",0.0,11.0,79.4,1006.9,296.5,1.3,3.1,323.3,0.07,7.6,9.8,"14:29:20",1
"19/03/03","14:40",0.0,10.9,79.5,1006.9,307.8,1.1,2.0,303.7,0.03,7.5,9.8,"14:34:40",1
"19/03/03","14:50",0.0,11.0,80.0,1006.4,314.6,1.6,2.2,307.4,0.02,7.7,9.8,"14:45:04",1
"19/03/03","15:00",0.0,10.9,80.6,1006.4,300.2,1.3,2.5,317.0,0.03,7.7,10.0,"14:53:04",1
"19/03/03","15:10",0.0,10.9,81.2,1006.7,295.6,1.1,1.4,310.4,0.02,7.8,9.9,"15:03:12",1
"19/03/03","15:20",0.0,10.9,81.0,1006.4,304.7,1.2,1.6,308.3,0.02,7.8,9.9,"15:17:12",1
"19/03/03","15:30",0.0,10.8,81.3,1006.2,330.0,0.5,1.2,302.5,0.03,7.8,9.9,"15:20:08",1
"19/03/03","15:40",0.0,10.8,82.0,1006.2,265.3,0.2,0.8,301.6,0.04,7.9,9.9,"15:33:04",1
"19/03/03","15:50",0.2,10.7,83.1,1006.2,325.9,0.5,1.3,331.6,0.03,8.0,9.8,"15:45:12",1
"19/03/03","16:00",0.0,10.4,83.7,1006.2,270.5,0.7,1.2,261.9,0.02,7.8,9.9,"15:59:20",1
"19/03/03","16:10",0.0,10.3,84.6,1006.7,291.1,1.1,1.3,313.9,0.01,7.9,10.0,"16:07:52",1
"19/03/03","16:20",0.0,10.4,85.4,1006.9,303.8,1.1,1.7,321.5,0.01,8.1,9.9,"16:18:00",1
"19/03/03","16:30",0.2,10.3,86.0,1006.4,323.4,1.1,1.6,318.6,0.01,8.1,10.0,"16:20:24",1
"19/03/03","16:40",0.0,10.2,87.0,1006.4,299.5,1.2,1.7,321.5,0.01,8.2,10.0,"16:30:48",1
"19/03/03","16:50",0.0,10.0,87.2,1006.7,264.0,0.8,1.6,315.5,0.00,8.0,10.0,"16:42:00",1
"19/03/03","17:00",0.0,9.9,88.1,1006.7,258.0,0.6,0.9,254.0,0.01,8.1,10.1,"16:58:16",1
"19/03/03","17:10",0.0,9.8,88.5,1006.4,256.1,0.8,1.3,270.6,0.00,8.0,10.0,"17:00:02",1
"19/03/03","17:20",0.0,9.7,89.0,1006.2,248.3,1.0,1.4,245.2,0.00,8.0,10.1,"17:12:48",1
"19/03/03","17:30",0.0,9.7,89.7,1006.2,263.3,1.0,1.2,247.4,0.00,8.1,10.0,"17:21:52",1
"19/03/03","17:40",0.0,9.7,89.9,1006.4,272.0,0.8,1.1,255.1,0.00,8.2,9.9,"17:35:44",1
"19/03/03","17:50",0.0,9.7,89.9,1006.0,296.8,1.1,1.3,308.4,0.00,8.2,9.8,"17:46:00",1
"19/03/03","18:00",0.0,9.6,90.3,1006.0,292.8,1.0,1.1,294.7,0.00,8.1,9.9,"17:57:52",1
"19/03/03","18:10",0.0,9.5,90.6,1006.4,300.2,1.2,1.4,306.7,0.00,8.1,9.9,"18:06:16",1
"19/03/03","18:20",0.0,9.4,91.3,1006.7,303.9,1.2,1.8,317.4,0.00,8.1,9.9,"18:19:52",1
"19/03/03","18:30",0.0,9.4,91.8,1006.7,323.6,1.5,1.9,323.8,0.00,8.2,9.7,"18:20:40",1
"19/03/03","18:40",0.0,9.4,91.9,1006.0,330.7,1.3,2.0,334.4,0.00,8.2,9.8,"18:36:48",1
"19/03/03","18:50",0.0,9.2,92.5,1006.0,321.8,1.5,1.8,322.7,0.00,8.1,9.7,"18:49:44",1
"19/03/03","19:00",0.0,9.0,93.0,1005.7,306.1,1.5,1.9,316.9,0.00,8.0,9.7,"18:50:48",1
"19/03/03","19:10",0.0,8.9,93.5,1005.5,312.6,1.7,2.1,319.3,0.00,7.9,9.6,"19:06:48",1
"19/03/03","19:20",0.0,8.9,94.2,1006.2,296.5,1.3,1.7,320.5,0.00,8.1,9.7,"19:10:08",1
"19/03/03","19:30",0.0,8.9,94.2,1006.2,294.7,1.3,1.6,290.7,0.00,8.1,9.7,"19:22:34",1
"19/03/03","19:40",0.0,8.9,94.6,1006.2,316.8,1.7,2.2,322.5,0.00,8.1,9.5,"19:37:04",1
"19/03/03","19:50",0.0,8.8,94.8,1006.0,316.6,1.5,2.0,321.7,0.00,8.1,9.6,"19:49:52",1
"19/03/03","20:00",0.0,8.8,95.0,1006.2,308.9,1.6,1.9,321.5,0.00,8.1,9.8,"19:50:24",1
"19/03/03","20:10",0.0,8.8,95.3,1006.2,294.4,1.2,1.4,285.9,0.00,8.1,9.5,"20:03:04",1
"19/03/03","20:20",0.0,8.8,95.4,1005.7,292.1,0.8,1.6,312.4,0.00,8.1,9.6,"20:11:44",1
"19/03/03","20:30",0.0,8.7,95.5,1006.2,310.3,1.5,1.9,320.6,0.00,8.1,9.5,"20:21:56",1
"19/03/03","20:40",0.0,8.7,95.8,1005.5,295.8,1.3,2.0,318.7,0.00,8.1,9.4,"20:32:52",1
"19/03/03","20:50",0.0,8.6,96.1,1005.0,285.9,0.8,1.0,280.9,0.00,8.1,9.5,"20:41:56",1
"19/03/03","21:00",0.0,8.6,96.2,1005.0,313.1,1.1,1.3,311.4,0.00,8.1,9.4,"20:54:24",1
"19/03/03","21:10",0.0,8.6,96.4,1005.0,316.0,1.3,1.9,321.8,0.00,8.1,9.5,"21:02:14",1
"19/03/03","21:20",0.0,8.6,96.5,1005.2,321.1,1.1,1.4,324.3,0.00,8.1,9.5,"21:13:06",1
"19/03/03","21:30",0.0,8.5,96.5,1005.5,306.6,1.1,1.6,314.0,0.00,8.0,9.4,"21:23:42",1
"19/03/03","21:40",0.0,8.6,96.8,1005.5,322.1,1.2,1.7,314.4,0.00,8.2,9.4,"21:31:20",1
"19/03/03","21:50",0.0,8.6,96.8,1005.2,299.2,0.8,1.6,320.2,0.00,8.2,9.4,"21:42:18",1
"19/03/03","22:00",0.2,8.6,96.9,1005.0,312.8,1.2,1.4,330.9,0.00,8.2,9.2,"21:58:42",1
"19/03/03","22:10",0.0,8.6,97.0,1005.0,300.6,1.2,1.8,323.9,0.00,8.2,9.5,"22:00:52",1
"19/03/03","22:20",0.0,8.7,97.1,1004.8,289.4,1.0,1.1,316.5,0.00,8.3,9.3,"22:13:06",1
"19/03/03","22:30",0.2,8.7,97.2,1004.5,312.0,1.1,1.6,316.3,0.00,8.3,9.5,"22:22:08",1
"19/03/03","22:40",0.0,8.6,97.2,1004.3,318.4,1.0,1.6,317.8,0.00,8.2,9.4,"22:36:08",1
"19/03/03","22:50",0.2,8.6,97.3,1004.3,314.0,1.0,1.3,314.1,0.00,8.2,9.4,"22:48:08",1
"19/03/03","23:00",0.0,8.6,97.4,1003.8,314.6,0.8,1.1,324.0,0.00,8.3,9.2,"22:50:08",1
"19/03/03","23:10",0.2,8.6,97.5,1003.6,311.5,0.5,1.1,318.5,0.00,8.3,9.4,"23:09:12",1
"19/03/03","23:20",0.2,8.6,97.5,1003.6,314.3,1.0,1.2,316.6,0.00,8.3,9.4,"23:11:20",1
"19/03/03","23:30",0.0,8.6,97.7,1003.6,308.3,1.1,1.3,320.4,0.00,8.3,9.3,"23:29:12",1
"19/03/03","23:40",0.2,8.6,97.8,1003.6,317.5,1.2,1.4,319.3,0.00,8.3,9.3,"23:31:12",1
"19/03/03","23:50",0.0,8.6,97.8,1003.6,316.1,1.3,1.6,321.8,0.00,8.3,9.2,"23:40:40",1
"19/03/03","24:00",0.4,8.6,97.9,1003.1,322.2,1.1,1.3,328.3,0.00,8.3,9.2,"23:56:02",1
